Regional Weather Roundup
Issued by NWS

Home | Current Version | Previous Version | Text Only | Print | Product List | Glossary On
Versions: 1 2 3 4 5 6 7 8 9 10 11 12 13 14 15 16 17 18 19 20 21 22 23 24 25 26 27 28 29 30 31 32 33 34 35 36 37 38 39 40 41 42 43 44 45 46 47 48 49 50
000
ASUS44 KFWD 301815
RWRTX
NORTH TEXAS HOURLY WEATHER ROUNDUP
NATIONAL WEATHER SERVICE FORT WORTH TX
100 PM CDT SUN AUG 30 2015

NOTE: "FAIR" INDICATES FEW OR NO CLOUDS BELOW 12,000 FEET WITH NO
SIGNIFICANT WEATHER AND/OR OBSTRUCTIONS TO VISIBILITY.

TXZ118-119-301900-
DALLAS/FORT WORTH METROPLEX

CITY           SKY/WX    TMP DP  RH WIND       PRES   REMARKS
DFW AIRPORT    PTSUNNY   93  60  33 SW13G21   29.99F HX  93
6HR MIN TEMP:  76; 6HR MAX TEMP:  94;

DALLAS LOVE    PTSUNNY   93  63  36 W8        29.99F HX  94
6HR MIN TEMP:  78; 6HR MAX TEMP:  93;

FTW MEACHAM    MOSUNNY   94  61  33 W10       30.00F HX  94
6HR MIN TEMP:  75; 6HR MAX TEMP:  94;

DAL-EXECUTIVE  MOSUNNY   91  63  39 SW7       30.00F HX  92
6HR MIN TEMP:  76; 6HR MAX TEMP:  91;

FTW-ALLIANCE   PTSUNNY   89  62  40 W10       30.00F
6HR MIN TEMP:  71; 6HR MAX TEMP:  92;

FTW-NAS-JRB    PTSUNNY   94  61  33 W12       30.01F HX  94
6HR MIN TEMP:  76; 6HR MAX TEMP:  94;

FTW-SPINKS     SUNNY     91  64  40 SW9       30.03F HX  93
ARLINGTON      MOSUNNY   94  61  33 W10       30.01F HX  94
6HR MIN TEMP:  75; 6HR MAX TEMP:  94;

GRAND PRAIRIE  SUNNY     91  63  38 SW8       30.02F HX  92
MESQUITE       SUNNY     91  63  38 S8        30.01F HX  92
LANCASTER      MOSUNNY   91  62  38 S8        30.01F HX  91
$$

TXZ091>094-102>105-117-120-121-131>134-301900-
NORTH CENTRAL TEXAS

CITY           SKY/WX    TMP DP  RH WIND       PRES   REMARKS
SHRMAN/DENISON MOSUNNY   95  62  33 W12G17    30.00F HX  96
6HR MIN TEMP:  73; 6HR MAX TEMP:  96;

GAINESVILLE    SUNNY     93  56  28 W10G18    30.01F HX  91
6HR MIN TEMP:  69; 6HR MAX TEMP:  93;

BOWIE          SUNNY     92  56  28 SW13G21   30.01F HX  90
6HR MIN TEMP:  66; 6HR MAX TEMP:  92;

BRIDGEPORT     MOSUNNY   92  62  36 W10G17    30.03F HX  92
6HR MIN TEMP:  70; 6HR MAX TEMP:  92;

DECATUR        MOSUNNY   91  57  31 SW9G16    30.02F HX  90
DENTON         MOSUNNY   93  59  31 W10G17    29.99F HX  92
6HR MIN TEMP:  72; 6HR MAX TEMP:  94;

MCKINNEY       MOSUNNY   92  61  35 SW15G21   29.99F HX  92
6HR MIN TEMP:  73; 6HR MAX TEMP:  93;

GREENVILLE     MOSUNNY   91  63  38 S6        30.00F HX  92
ROCKWALL       MOSUNNY   91  66  43 SW9       29.99F HX  93
6HR MIN TEMP:  74; 6HR MAX TEMP:  91;

TERRELL        SUNNY     91  67  44 SW8       30.01F HX  94
6HR MIN TEMP:  74; 6HR MAX TEMP:  92;

WAXAHACHIE     PTSUNNY   90  65  42 SW12G17   30.03F HX  92
6HR MIN TEMP:  73; 6HR MAX TEMP:  91;

CLEBURNE         N/A     90  64  43 SW12      30.04F HX  91
GRANBURY       MOSUNNY   90  64  42 S7        30.04F HX  91
6HR MIN TEMP:  76; 6HR MAX TEMP:  90;

$$

TXZ083>090-098>101-113>116-127>130-139>142-154-155-301900-
WESTERN NORTH TEXAS

CITY           SKY/WX    TMP DP  RH WIND       PRES   REMARKS
WICHITA FALLS  MOSUNNY   90  65  43 W5        30.00F HX  92
6HR MIN TEMP:  66; 6HR MAX TEMP:  90;

WF-KICKAPOO    SUNNY     92  57  30 CALM      30.01F HX  90
6HR MIN TEMP:  72; 6HR MAX TEMP:  92;

VERNON         SUNNY     89  56  32 W3        30.03F
6HR MIN TEMP:  68; 6HR MAX TEMP: 101;

ABILENE        PTSUNNY   92  58  31 W12G17    30.07F HX  91
6HR MIN TEMP:  69; 6HR MAX TEMP:  92;

ABILENE-DYESS  PTSUNNY   88  62  40 NW9       30.06F
6HR MIN TEMP:  67; 6HR MAX TEMP:  89;

BRECKENRIDGE   PTSUNNY   90  57  32 NW9       30.04F HAZE
6HR MIN TEMP:  71; 6HR MAX TEMP:  91;

GRAHAM         MOSUNNY   91  60  34 SW10G17   30.02F HX  91
6HR MIN TEMP:  67; 6HR MAX TEMP:  91;

MINERAL WELLS  PTSUNNY   88  63  43 SW12      30.02F
6HR MIN TEMP:  71; 6HR MAX TEMP:  88;

STEPHENVILLE   PTSUNNY   83  64  54 SW8       30.09F
6HR MIN TEMP:  74; 6HR MAX TEMP:  84;

COMANCHE       PTSUNNY   83  65  54 W6        30.07F
6HR MIN TEMP:  72; 6HR MAX TEMP:  83;

BROWNWOOD      MOSUNNY   88  63  42 W7        30.07F
COLEMAN        PTSUNNY   87  60  41 S3        30.08F
6HR MIN TEMP:  71; 6HR MAX TEMP:  87;

BRADY          SUNNY     84  64  51 SW3       30.09F
$$

TXZ143>147-156>162-174-175-301900-
CENTRAL TEXAS

CITY           SKY/WX    TMP DP  RH WIND       PRES   REMARKS
WACO           CLOUDY    80  70  71 S3        30.03F
6HR MIN TEMP:  73; 6HR MAX TEMP:  80; 6HR PCP:  0.09;

WACO-TSTC      SUNNY     81  68  65 CALM      30.03F
WACO-MCGREGOR  CLOUDY    81  73  76 CALM      30.03F
6HR MIN TEMP:  72; 6HR MAX TEMP:  82; 6HR PCP:  0.13;

HILLSBORO      PTSUNNY   85  64  48 CALM      30.04S
6HR MIN TEMP:  76; 6HR MAX TEMP:  85;

CORSICANA      PTSUNNY   91  64  40 W5        30.03F HX  92
6HR MIN TEMP:  76; 6HR MAX TEMP:  91;

MEXIA          CLOUDY    90  66  45 E7G18     30.02F HX  92
6HR MIN TEMP:  74; 6HR MAX TEMP:  90;

HEARNE         CLOUDY    85  68  56 SW3       30.05S
6HR MIN TEMP:  73; 6HR MAX TEMP:  85;

CAMERON        PTSUNNY   87  66  48 S3        30.03F HX  90
6HR MIN TEMP:  74; 6HR MAX TEMP:  87;

TEMPLE         PTSUNNY   88  63  42 S5        30.03F
6HR MIN TEMP:  73; 6HR MAX TEMP:  88;

KILLEEN        PTSUNNY   91  63  40 W8        30.03F HX  91
6HR MIN TEMP:  74; 6HR MAX TEMP:  91; 6HR PCP: TRACE;

KILLEEN-SKYLRK MOSUNNY   90  64  43 CALM      30.02F HX  91
6HR MIN TEMP:  75; 6HR MAX TEMP:  90;

FORT HOOD      MOSUNNY   90  63  40 VRB3      30.02F HX  90
6HR MIN TEMP:  74; 6HR MAX TEMP:  91;

GATESVILLE     CLOUDY    88  63  42 W8        30.05F
HAMILTON       CLOUDY    82  65  56 W3        30.07F
6HR MIN TEMP:  73; 6HR MAX TEMP:  82;

LAMPASAS       CLOUDY    88  66  47 SW5       30.05F HX  90
6HR MIN TEMP:  73; 6HR MAX TEMP:  88;

$$

TXZ095>097-106>112-122>126-135>138-148>153-164>167-301900-
EAST TEXAS

CITY           SKY/WX    TMP DP  RH WIND       PRES   REMARKS
PARIS          MOSUNNY   88  64  45 S13       30.00F
6HR MIN TEMP:  72; 6HR MAX TEMP:  90;

SULPHUR SPRNGS PTSUNNY   90  65  43 SW12      30.03F HX  92
6HR MIN TEMP:  74; 6HR MAX TEMP:  91;

MOUNT PLEASANT PTSUNNY   92  62  36 S13G18    30.02F HX  92
6HR MIN TEMP:  73; 6HR MAX TEMP:  93;

GILMER         SUNNY     87  65  47 S3        30.03F
6HR MIN TEMP:  71; 6HR MAX TEMP:  88;

MINEOLA        SUNNY     90  61  37 SW8       30.03F
TYLER          MOSUNNY   88  66  48 W9        30.03F HX  90
6HR MIN TEMP:  76; 6HR MAX TEMP:  89;

LONGVIEW       SUNNY     89  68  49 W7        30.03F HX  93
6HR MIN TEMP:  73; 6HR MAX TEMP:  89;

MARSHALL       MOSUNNY   90  69  49 SW6       30.05F HX  94
6HR MIN TEMP:  71; 6HR MAX TEMP:  90;

ATHENS         MOSUNNY   86  63  45 S7        30.01F
JACKSONVILLE   MOSUNNY   89  62  40 SW6       30.06F
HENDERSON      SUNNY     88  65  45 SW7       30.04F
6HR MIN TEMP:  69; 6HR MAX TEMP:  88;

CENTER         FAIR      87  64  46 SW6       30.03F
6HR MIN TEMP:  71; 6HR MAX TEMP:  89;

NACOGDOCHES    PTSUNNY   84  64  51 SW6       30.04S
6HR MIN TEMP:  70; 6HR MAX TEMP:  84;

LUFKIN         PTSUNNY   87  63  44 SW8       30.03F
6HR MIN TEMP:  69; 6HR MAX TEMP:  88;

$$

SUPPLEMENTAL OBSERVATIONS (CENTRAL)

CITY           SKY/WX    TMP DP  RH WIND       PRES   REMARKS
LAKE TEXOMA      N/A     90  61  37 W5          N/A
CADDO GRASSLND   N/A     95  63  34 SW8G17      N/A  HX  96
PAT MAYSE LAKE   N/A     90  63  40 S13         N/A  HX  90
GREENVILLE       N/A     91  63  38 SW9G17      N/A  HX  92
CEDAR HILL       N/A     93  61  33 W6          N/A  HX  93
ATHENS           N/A     91  64  40 S5          N/A  HX  93
MCGREGOR         N/A     90  68  48 E7          N/A  HX  93
$$

SUPPLEMENTAL OBSERVATIONS (WEST)

CITY           SKY/WX    TMP DP  RH WIND       PRES   REMARKS



USA.gov is the U.S. government's official web portal to all federal, state and local government web resources and services.